Location: Aragüita
(10.0436°N, 67.8028°W)
Time: 13:36:17
(UTC+00:00)

USA 267 - Pass Details

Date: 14 April 2024
Orbit: 1100 x 1107 km, 123.0° (Epoch: 21 May)

Event Time Altitude Azimuth Distance (km) Brightness Sun altitude
Rises 09:13:21 0° 173° (S) 3,909 6.1 -17.2°
Reaches altitude 10° 09:16:29 10° 188° (S) 2,950 5.3 -16.4°
Maximum altitude 09:21:09 21° 235° (SW) 2,234 4.3 -15.3°
Enters shadow 09:22:18 20° 249° (WSW) 2,283 4.3 -15.0°
